Content
SEND FEEDBACK

Daily
Averages
Monthly
Summary
United Kingdom

BULFORD, ENGLAND


Home > Europe > United Kingdom > England
Elevation: 575 feet     Latitude: 51 17N     Longitude: 001 46W

WEATHER
 
SELECT A DAY
Number of Records: 176,715;   Date Range: 7/1/96 - 11/26/14
 
SHARE

PRINT THIS DATA

[ ← Previous Day ]
WEATHER ALMANAC - OCTOBER 1, 2013
[ Next Day → ]
[ °C ]   °F
Weather ElementAverageHighLow
Temperature56.8 °F60.8 °F (2:50 pm)53.6 °F (3:50 am)
Dewpoint54.1 °F58 °F (3:50 pm)50 °F (12:50 am)
Humidity90.2 %100 % (6:50 pm)81 % (9:50 pm)
Barometer29.75 in29.77 in (11:50 am)29.71 in (4:50 am)
Wind Speed11.5 mph13.8 mph (5:50 pm)
Weather ElementAverage
Visibility3.9 mi
Wind DirectionE (94.3 °)

Weather ElementTotal
Precipitation---
Heating Degree Days7.8 (Base 65)
Growing Degree Days7.2 (Base 50)
Averaged from 35 records on October 1, 2013
WEATHER CONDITIONS BREAKOUT
WIND DIRECTION BREAKOUT
WEATHER BY HOUR - OCTOBER 1, 2013
[ °C ]   °F
Local TimeTemperatureDewpointHumidityBarometerVisibilityWind DirectionWind SpeedGust SpeedPrecipitationEventsConditions
12:50 AM55.4 °F50.0 °F82 %29.74 in6.2 miEast (80°)11.5 mph
1:50 AM55.4 °F50.0 °F82 %29.74 in6.2 miEast (90°)8.1 mph
2:50 AM55.4 °F50.0 °F82 %29.74 in5.0 miEast (80°)9.2 mphHaze
3:50 AM54.0 °F50.0 °F83 %29.75 in4.0 miEast (80°)8.1 mphLight Haze
3:50 AM53.6 °F50.0 °F88 %29.74 in4.3 miEast (80°)8.1 mphHaze
4:50 AM53.6 °F51.8 °F94 %29.71 in4.3 miEast (80°)10.4 mphHaze
5:50 AM55.4 °F51.8 °F88 %29.71 in4.3 miEast (80°)10.4 mphHaze
6:50 AM53.6 °F51.8 °F94 %29.74 in3.1 miEast (80°)10.4 mphRainLight Rain
6:50 AM54.0 °F51.0 °F88 %29.74 in3.0 miEast (80°)10.4 mphRainLight Rain
7:50 AM53.6 °F51.8 °F94 %29.74 in3.7 miEast (80°)12.7 mphRainLight Rain
8:50 AM53.6 °F51.8 °F94 %29.74 in3.7 miEast (80°)8.1 mphHaze
9:50 AM55.0 °F52.0 °F88 %29.75 in4.0 miEast (90°)11.5 mphRainLight Rain
9:50 AM55.4 °F51.8 °F88 %29.74 in3.7 miEast (90°)11.5 mphHaze
10:50 AM57.2 °F53.6 °F88 %29.74 in3.7 miEast (90°)11.5 mphHaze
11:50 AM57.2 °F53.6 °F88 %29.77 in2.8 miESE (110°)8.1 mphRainLight Rain
12:42 PM59.0 °F57.2 °F94 %29.74 inEast (100°)10.4 mphHaze
12:50 PM59.0 °F57.2 °F94 %29.74 inEast (100°)11.5 mphHaze
12:50 PM60.0 °F57.0 °F87 %29.76 in3.0 miEast (100°)11.5 mphRainLight Rain
1:50 PM59.0 °F57.2 °F94 %29.74 in2.8 miESE (110°)12.7 mphHaze
2:50 PM60.8 °F57.2 °F88 %29.74 in2.8 miESE (110°)12.7 mphHaze
3:50 PM60.0 °F58.0 °F90 %29.75 in3.0 miESE (110°)10.4 mphHaze
3:50 PM60.8 °F57.2 °F88 %29.74 in3.1 miESE (110°)10.4 mphHaze
4:50 PM59.0 °F57.2 °F94 %29.74 inESE (110°)10.4 mphHaze
5:20 PM59.0 °F57.2 °F94 %29.74 in2.8 miEast (100°)12.7 mphHaze
5:50 PM59.0 °F57.2 °F94 %29.74 inEast (100°)13.8 mphMostly Cloudy
6:50 PM57.2 °F57.2 °F100 %29.74 in2.8 miEast (100°)13.8 mphHaze
6:50 PM58.0 °F56.0 °F92 %29.76 in3.0 miEast (100°)13.8 mphHaze
7:17 PM57.2 °F55.4 °F94 %29.77 in3.1 miEast (100°)13.8 mphHaze
7:34 PM57.2 °F55.4 °F94 %29.77 in3.7 miEast (100°)13.8 mphHaze
7:50 PM57.2 °F53.6 °F88 %29.77 in5.0 miEast (100°)13.8 mphHaze
8:50 PM57.2 °F53.6 °F88 %29.77 in5.0 miEast (100°)13.8 mphRainLight Rain
9:50 PM57.0 °F53.0 °F81 %29.77 in6.0 miEast (90°)13.8 mphRainLight Rain
9:50 PM57.2 °F53.6 °F88 %29.77 in5.6 miEast (90°)13.8 mphHaze
10:50 PM55.4 °F55.4 °F100 %29.74 inEast (100°)12.7 mphRainRain Showers
11:50 PM57.2 °F55.4 °F94 %29.74 in2.8 miEast (100°)11.5 mphLight Drizzle
Hourly data recorded from EGDM, located miles away from Bulford, England







STORIES FROM OUR PARTNERS